星链-33906 (STARLINK-33906)

导读

STARLINK-33906是美国于2025年5月2日发射的星链系列卫星。星链计划是SpaceX打造的低轨卫星互联网星座项目,旨在为全球提供高速、低成本的宽带互联网服务,该卫星入轨后将参与组网,进一步扩充星链星座的服务覆盖范围与网络容量。

Basic Information
目录编号:
63785
目录名称:
STARLINK-33906
国际标识:
2025-091L
轨道中心:
EARTH
卫星名称:
星链-33906
卫星全名:
星链-33906 (STARLINK-33906)
卫星状态:
已陨落 最后检测时间 2026-05-05
发射日期:
2025-05-02 UTC
国别 :
美国 (US)
星等 :
--
Orbit Information
数据来源 国际轨道数据
星历时间: 2026-05-05T13:32:50+0800
轨道信息已过期40天
半长轴: 6568.652km
偏心率: 0.0005177
轨道倾角: 42.992°
近地点辐角 221.384°
升交点赤经 83.130°
平近点角 138.666°
近地点: 187.114km
远地点: 193.916km
周期: 88.303分钟
每日圈数: 16.307541
Detailed Information
固有亮度:
5
最大亮度:
2.5
卫星平台:
Starlink V1.0
覆盖范围:
全球
运营商:
太空探索技术公司
运营商所在国:
美国
制造商(研发单位):
太空探索技术公司
制造商所在国:
美国
使用方式:
暂无
Satellite Introduction
Starlink 计划是 SpaceX 推出的全球卫星互联网项目,通过发射低轨道卫星,为全球尤其是偏远地区提供高速、低延迟的互联网服务。自 2019 年起,Starlink 已部署数千颗卫星,旨在缩小全球数字鸿沟,推动互联网普及。该项目还为军事、航空等行业提供通信支持,带来广泛经济效益。